FW8563 Weather Reports


time (UTC)temp
C
wind
direction
speed
KPH
gust
KPH
rain 1hr
cm
rain 24hr
cm
rain mn
cm
humidity
%
barometer
mb
20260508060009 13 6 8.0 16.1 0.00 0.03 0.00 82 1013.3
20260508055008 13 13 8.0 16.1 0.00 0.03 0.00 82 1013.2
20260508054005 13 23 11.3 22.5 0.00 0.03 0.00 83 1013.0
20260508053504 13 16 11.3 19.3 0.00 0.03 0.00 83 1013.0
20260508053006 13 7 9.7 17.7 0.00 0.03 0.00 83 1013.0
20260508052504 13 11 8.0 17.7 0.00 0.03 0.00 84 1012.9
20260508052005 13 5 8.0 19.3 0.00 0.03 0.00 84 1013.0
20260508051459 13 15 8.0 19.3 0.00 0.03 0.00 84 1012.9
20260508050958 13 352 8.0 14.5 0.00 0.03 0.00 84 1012.9
20260508050501 13 352 9.7 17.7 0.00 0.03 0.00 84 1012.9
20260508045958 13 13 9.7 17.7 0.00 0.03 0.00 84 1012.7
20260508045002 13 9 11.3 19.3 0.00 0.03 0.00 84 1012.6
20260508044458 13 27 11.3 19.3 0.00 0.03 0.00 84 1012.5
20260508044001 13 18 11.3 17.7 0.00 0.03 0.00 84 1012.6
20260508043500 13 26 11.3 17.7 0.00 0.03 0.00 83 1012.6
20260508042959 13 23 11.3 17.7 0.00 0.03 0.00 83 1012.7
20260508042459 12 349 9.7 17.7 0.00 0.03 0.00 84 1012.7
20260508041956 12 340 8.0 16.1 0.00 0.03 0.00 84 1012.7
20260508041450 12 352 4.8 16.1 0.00 0.03 0.00 84 1012.6
20260508040950 12 323 3.2 11.3 0.00 0.03 0.00 84 1012.7
20260508040450 12 331 1.6 8.0 0.00 0.03 0.00 85 1012.7
20260508035950 12 289 3.2 11.3 0.00 0.03 0.00 85 1012.6
20260508035450 12 311 3.2 11.3 0.00 0.03 0.00 85 1012.5
20260508034947 12 340 3.2 9.7 0.00 0.03 0.00 84 1012.5
20260508034445 12 340 4.8 9.7 0.00 0.03 0.00 84 1012.2
20260508033445 12 16 4.8 12.9 0.00 0.03 0.00 83 1012.2
20260508032944 13 329 6.4 16.1 0.00 0.03 0.00 83 1012.2
20260508032444 13 18 8.0 17.7 0.00 0.03 0.00 82 1012.4
20260508031945 13 336 9.7 17.7 0.00 0.03 0.00 82 1012.4
20260508030944 13 337 11.3 19.3 0.00 0.03 0.00 82 1012.2
20260508030443 13 356 9.7 19.3 0.00 0.03 0.00 82 1012.4
20260508025937 13 4 9.7 17.7 0.00 0.03 0.00 82 1012.4
20260508025431 13 0 9.7 16.1 0.00 0.03 0.00 82 1012.4
20260508024932 13 358 9.7 16.1 0.00 0.03 0.00 82 1012.5
20260508024432 13 42 9.7 19.3 0.00 0.03 0.00 82 1012.5
20260508023932 13 15 9.7 19.3 0.00 0.03 0.00 82 1012.5
20260508022932 13 16 11.3 19.3 0.00 0.03 0.00 82 1012.6
20260508021932 13 17 12.9 20.9 0.00 0.03 0.00 82 1012.5
20260508021432 13 4 12.9 27.4 0.00 0.03 0.00 82 1012.5
20260508020933 13 13 14.5 27.4 0.00 0.03 0.00 81 1012.6
20260508020434 13 13 12.9 25.7 0.00 0.03 0.00 81 1012.6
20260508015933 13 6 11.3 19.3 0.00 0.03 0.00 81 1012.7
20260508015434 13 12 12.9 22.5 0.00 0.03 0.00 81 1012.7
20260508014932 13 15 11.3 22.5 0.00 0.03 0.00 80 1012.8
20260508014430 13 351 9.7 19.3 0.00 0.03 0.00 80 1012.9
20260508013932 13 9 9.7 17.7 0.00 0.03 0.00 80 1012.9
20260508012927 13 2 11.3 20.9 0.00 0.03 0.00 79 1013.2
20260508012428 13 22 9.7 20.9 0.00 0.03 0.00 78 1013.2
20260508011927 13 340 9.7 20.9 0.00 0.03 0.00 78 1013.1
20260508011427 13 28 9.7 19.3 0.00 0.03 0.00 79 1013.2
20260508010925 13 346 9.7 19.3 0.00 0.03 0.00 79 1013.1
20260508005929 13 15 8.0 14.5 0.00 0.03 0.00 79 1013.3
20260508004925 13 354 6.4 14.5 0.00 0.03 0.00 79 1013.3
20260508003926 13 340 4.8 11.3 0.00 0.03 0.00 80 1013.4
20260508003424 13 31 4.8 8.0 0.00 0.03 0.00 80 1013.4
20260508002924 13 27 4.8 11.3 0.00 0.03 0.00 80 1013.5
20260508002426 13 356 4.8 11.3 0.00 0.03 0.00 79 1013.5
20260508001924 13 12 4.8 9.7 0.00 0.05 0.00 79 1013.6
20260508001427 13 1 4.8 9.7 0.00 0.08 0.00 79 1013.5
20260508000928 13 355 4.8 9.7 0.00 0.10 0.00 79 1013.6
20260508000427 13 335 4.8 12.9 0.00 0.15 0.00 79 1013.7
20260507235926 13 342 4.8 12.9 0.00 0.15 0.00 79 1013.7
20260507235426 13 335 4.8 11.3 0.00 0.20 0.00 79 1013.8
20260507234923 13 349 4.8 11.3 0.00 0.23 0.00 79 1013.8
20260507234421 13 2 4.8 11.3 0.00 0.25 0.00 79 1013.8
20260507233920 13 18 6.4 12.9 0.00 0.28 0.00 80 1014.0
20260507233420 13 6 6.4 14.5 0.00 0.28 0.00 80 1014.0
20260507232919 13 299 4.8 14.5 0.00 0.30 0.00 81 1014.0
20260507232414 13 349 4.8 9.7 0.00 0.30 0.00 81 1014.1
20260507231914 13 332 4.8 9.7 0.00 0.30 0.00 80 1014.2
20260507230416 13 345 3.2 8.0 0.00 0.33 0.00 79 1014.5
20260507225914 13 333 3.2 9.7 0.00 0.36 0.00 79 1014.5
20260507225413 13 12 4.8 9.7 0.00 0.36 0.00 79 1014.6
20260507224417 13 322 4.8 9.7 0.00 0.36 0.00 79 1014.7
20260507223911 13 335 4.8 11.3 0.00 0.36 0.00 78 1014.9
20260507222913 13 359 3.2 11.3 0.00 0.36 0.00 80 1014.8
20260507222410 13 358 3.2 8.0 0.00 0.38 0.00 80 1014.9
20260507221404 13 352 4.8 9.7 0.00 0.38 0.00 80 1015.2
20260507220904 13 320 3.2 9.7 0.00 0.38 0.00 80 1015.1
20260507220401 14 342 3.2 8.0 0.00 0.38 0.00 78 1015.1
20260507215901 14 349 3.2 6.4 0.00 0.38 0.38 77 1015.0
20260507215402 14 349 3.2 9.7 0.00 0.38 0.38 77 1015.0
20260507214902 14 349 4.8 9.7 0.00 0.38 0.38 76 1015.0
20260507214402 14 5 6.4 9.7 0.00 0.38 0.38 77 1014.9
20260507213902 14 347 4.8 8.0 0.00 0.38 0.38 77 1014.9
20260507213405 14 0 3.2 8.0 0.00 0.38 0.38 77 1014.9
20260507212905 14 15 3.2 6.4 0.00 0.38 0.38 77 1014.9
20260507212402 14 6 3.2 4.8 0.00 0.38 0.38 78 1014.9
20260507211906 14 341 1.6 4.8 0.00 0.38 0.38 78 1014.9
20260507211404 14 345 1.6 4.8 0.00 0.38 0.38 78 1015.0
20260507210401 14 344 3.2 4.8 0.00 0.38 0.38 77 1015.0
20260507205856 14 338 1.6 4.8 0.00 0.38 0.38 77 1014.9
20260507205352 14 347 1.6 4.8 0.00 0.38 0.38 78 1015.0
20260507204852 14 350 1.6 4.8 0.00 0.38 0.38 78 1015.0
20260507204352 15 346 1.6 4.8 0.00 0.38 0.38 77 1015.0
20260507203851 15 6 1.6 6.4 0.00 0.38 0.38 76 1015.0
20260507203351 15 7 3.2 8.0 0.00 0.38 0.38 75 1015.0
20260507202849 15 7 4.8 9.7 0.00 0.38 0.38 75 1015.0
20260507202349 15 13 4.8 9.7 0.00 0.38 0.38 75 1015.0
20260507201849 15 352 4.8 9.7 0.00 0.38 0.38 75 1015.0
20260507201351 15 15 4.8 9.7 0.00 0.38 0.38 75 1015.0
20260507200849 15 27 3.2 9.7 0.00 0.38 0.38 75 1014.9
20260507200347 15 341 3.2 9.7 0.00 0.38 0.38 75 1014.9
20260507195849 15 25 3.2 6.4 0.00 0.38 0.38 75 1014.9
20260507195348 15 359 3.2 6.4 0.00 0.38 0.38 76 1014.9
20260507194841 15 17 1.6 4.8 0.00 0.38 0.38 76 1014.8
20260507194344 15 12 1.6 6.4 0.00 0.38 0.38 75 1014.9
20260507193844 15 346 1.6 6.4 0.00 0.38 0.38 75 1014.9
20260507193341 15 343 1.6 4.8 0.00 0.38 0.38 75 1014.7
20260507192844 16 22 1.6 4.8 0.00 0.38 0.38 74 1014.8
20260507192342 16 353 1.6 3.2 0.00 0.38 0.38 74 1014.6
20260507191842 16 1 0.0 3.2 0.00 0.38 0.38 74 1014.6
20260507191342 16 11 0.0 3.2 0.00 0.38 0.38 73 1014.7
20260507190841 16 8 0.0 0.0 0.00 0.38 0.38 73 1014.7
20260507185342 16 15 0.0 0.0 0.00 0.43 0.38 72 1014.8
20260507184343 16 4 0.0 0.0 0.00 0.43 0.38 70 1014.8
20260507183841 16 148 0.0 0.0 0.00 0.43 0.38 68 1014.8
20260507183343 16 148 0.0 0.0 0.00 0.43 0.38 70 1014.8
20260507182844 16 147 0.0 0.0 0.00 0.43 0.38 69 1014.7
20260507182343 17 148 0.0 0.0 0.00 0.43 0.38 71 1014.8
20260507181841 17 148 0.0 0.0 0.00 0.43 0.38 68 1014.8
20260507181342 18 148 0.0 0.0 0.00 0.43 0.38 67 1014.8
20260507180842 18 148 0.0 0.0 0.00 0.43 0.38 66 1014.8
20260507180337 18 148 0.0 0.0 0.00 0.43 0.38 64 1014.9
20260507175846 19 148 0.0 0.0 0.00 0.43 0.38 63 1014.8
20260507175339 19 148 0.0 0.0 0.00 0.43 0.38 63 1014.8
20260507174839 19 148 0.0 0.0 0.00 0.43 0.38 63 1014.8
20260507174337 19 145 0.0 0.0 0.00 0.43 0.38 62 1014.8
20260507173837 19 165 0.0 0.0 0.00 0.43 0.38 63 1014.8
20260507173337 19 207 0.0 0.0 0.00 0.43 0.38 62 1014.7
20260507172337 20 167 0.0 0.0 0.00 0.43 0.38 63 1014.7
20260507171837 19 147 0.0 0.0 0.00 0.43 0.38 63 1014.8
20260507170839 20 129 0.0 0.0 0.00 0.43 0.38 60 1014.6
20260507170339 20 148 0.0 0.0 0.00 0.43 0.38 59 1014.7
20260507165837 20 226 0.0 0.0 0.00 0.43 0.38 59 1014.7
20260507164835 20 207 0.0 3.2 0.00 0.43 0.38 59 1014.7
20260507164333 20 181 1.6 3.2 0.00 0.43 0.38 60 1014.6
20260507163830 20 135 0.0 3.2 0.00 0.43 0.38 57 1014.6
20260507163321 20 127 0.0 3.2 0.00 0.43 0.38 58 1014.6
20260507162319 20 202 0.0 4.8 0.00 0.43 0.38 57 1014.6
20260507161817 20 136 0.0 4.8 0.00 0.43 0.38 58 1014.6
20260507161320 20 253 0.0 4.8 0.00 0.43 0.38 58 1014.7
20260507160817 20 222 0.0 3.2 0.00 0.43 0.38 58 1014.7
20260507160315 20 213 0.0 3.2 0.00 0.43 0.38 58 1014.7
20260507155813 20 254 1.6 8.0 0.00 0.43 0.38 58 1014.5
20260507155313 20 215 1.6 8.0 0.00 0.43 0.38 59 1014.6
20260507154814 20 225 1.6 8.0 0.00 0.43 0.38 60 1014.7
20260507153817 20 224 3.2 9.7 0.00 0.43 0.38 59 1014.7
20260507153314 20 229 3.2 9.7 0.00 0.43 0.38 60 1014.7
20260507152813 20 206 3.2 9.7 0.00 0.43 0.38 60 1014.8
20260507152310 20 222 3.2 8.0 0.00 0.43 0.38 60 1014.8
20260507151805 20 153 3.2 8.0 0.00 0.43 0.38 59 1014.8
20260507151300 20 212 3.2 8.0 0.00 0.43 0.38 59 1014.8
20260507150756 20 143 3.2 9.7 0.00 0.43 0.38 60 1014.9
20260507150253 20 214 3.2 9.7 0.00 0.43 0.38 59 1014.8
20260507145753 20 147 1.6 8.0 0.00 0.43 0.38 59 1014.9
20260507145252 20 75 1.6 9.7 0.00 0.43 0.38 59 1014.9
20260507144751 20 160 3.2 9.7 0.00 0.43 0.38 60 1014.9
20260507143752 20 219 1.6 8.0 0.00 0.43 0.38 62 1014.9
20260507143249 19 159 3.2 9.7 0.00 0.43 0.38 62 1015.0
20260507142751 19 146 3.2 9.7 0.00 0.43 0.38 61 1015.1
20260507142250 19 82 3.2 9.7 0.00 0.43 0.38 63 1015.1
20260507141749 19 109 3.2 9.7 0.00 0.43 0.38 63 1015.1
20260507140748 19 212 3.2 9.7 0.00 0.43 0.38 65 1015.1
20260507140246 19 155 3.2 12.9 0.00 0.43 0.38 64 1015.3
20260507135743 19 242 3.2 12.9 0.00 0.43 0.38 65 1015.3
20260507135242 19 216 3.2 12.9 0.00 0.43 0.38 65 1015.4
20260507134744 19 135 4.8 14.5 0.00 0.43 0.38 66 1015.4
20260507134242 19 250 3.2 14.5 0.00 0.43 0.38 69 1015.5
20260507133743 19 189 3.2 8.0 0.00 0.43 0.38 66 1015.6
20260507133243 19 142 3.2 9.7 0.00 0.43 0.38 66 1015.8
20260507132741 19 190 3.2 9.7 0.00 0.43 0.38 67 1015.8
20260507132242 18 147 3.2 14.5 0.00 0.46 0.38 69 1015.8
20260507131743 18 105 4.8 14.5 0.00 0.46 0.38 68 1015.8
20260507131244 18 115 6.4 12.9 0.00 0.46 0.38 68 1015.9
20260507130741 18 150 4.8 12.9 0.00 0.46 0.38 67 1016.0
20260507130241 18 139 4.8 14.5 0.00 0.46 0.38 69 1016.1
20260507125741 18 158 4.8 14.5 0.00 0.46 0.38 66 1016.2
20260507125240 18 148 3.2 11.3 0.00 0.46 0.38 68 1016.2
20260507124734 18 186 3.2 11.3 0.00 0.46 0.38 69 1016.2
20260507124228 18 137 3.2 11.3 0.00 0.46 0.38 68 1016.1
20260507123725 18 203 4.8 11.3 0.00 0.46 0.38 69 1016.2
20260507123223 18 101 3.2 11.3 0.00 0.46 0.38 67 1016.1
20260507122725 18 239 3.2 11.3 0.00 0.46 0.38 68 1016.1
20260507121722 18 132 4.8 16.1 0.00 0.46 0.38 67 1016.0
20260507121222 18 132 4.8 16.1 0.00 0.46 0.38 67 1016.0
20260507120721 18 122 3.2 11.3 0.00 0.46 0.38 66 1016.0
20260507120219 18 217 3.2 11.3 0.00 0.46 0.38 67 1016.0
20260507115718 18 113 3.2 11.3 0.00 0.46 0.38 66 1016.0
20260507115220 18 158 3.2 9.7 0.00 0.46 0.38 66 1016.0
20260507114719 18 147 3.2 16.1 0.00 0.46 0.38 68 1016.1
20260507113719 18 119 4.8 14.5 0.00 0.46 0.38 66 1016.0
20260507113219 19 210 3.2 14.5 0.00 0.46 0.38 66 1016.1
20260507112715 18 71 3.2 12.9 0.00 0.46 0.38 65 1016.1
20260507112217 18 170 3.2 11.3 0.00 0.46 0.38 66 1016.2
20260507111716 18 146 3.2 11.3 0.00 0.46 0.38 63 1016.4
20260507111216 18 220 3.2 11.3 0.00 0.46 0.38 68 1016.2
20260507110714 18 145 3.2 11.3 0.00 0.46 0.38 69 1016.4
20260507110212 17 268 3.2 9.7 0.00 0.46 0.38 72 1016.2
20260507105710 17 191 4.8 11.3 0.00 0.46 0.38 73 1016.2
20260507105211 17 145 4.8 11.3 0.00 0.46 0.38 73 1016.5
20260507104711 17 202 4.8 9.7 0.00 0.46 0.38 73 1016.4
20260507104208 17 184 3.2 9.7 0.00 0.46 0.38 73 1016.5
20260507103709 17 231 3.2 9.7 0.00 0.46 0.38 74 1016.4
20260507102206 16 128 3.2 12.9 0.00 0.46 0.38 78 1016.5
20260507101701 16 212 3.2 9.7 0.00 0.46 0.38 83 1016.5
20260507101203 16 120 3.2 9.7 0.00 0.46 0.38 86 1016.6
20260507100700 16 181 3.2 12.9 0.00 0.46 0.38 89 1016.6
20260507095704 15 243 1.6 11.3 0.00 0.46 0.38 94 1016.6
20260507095201 15 208 1.6 8.0 0.00 0.46 0.38 97 1016.6
20260507094701 15 213 3.2 8.0 0.00 0.46 0.38 98 1016.6
20260507092201 13 193 3.2 11.3 0.03 0.46 0.38 98 1016.7
20260507091700 13 145 1.6 8.0 0.03 0.46 0.38 98 1016.6
20260507091155 13 141 3.2 8.0 0.03 0.46 0.38 98 1016.6
20260507090655 13 154 3.2 9.7 0.03 0.46 0.38 98 1016.7
20260507090200 13 135 1.6 9.7 0.03 0.46 0.38 98 1016.7
20260507085655 13 115 1.6 8.0 0.03 0.46 0.38 98 1016.7
20260507085156 13 154 1.6 8.0 0.03 0.46 0.38 98 1016.7
20260507084157 13 207 1.6 8.0 0.03 0.46 0.38 98 1016.6
20260507083707 13 136 1.6 8.0 0.03 0.46 0.38 98 1016.7
20260507083155 13 184 1.6 8.0 0.03 0.46 0.38 99 1016.7
20260507082655 13 106 1.6 8.0 0.03 0.46 0.38 99 1016.7
20260507082157 13 122 1.6 8.0 0.00 0.43 0.36 99 1016.7
20260507081155 13 150 3.2 8.0 0.00 0.43 0.36 99 1016.6
20260507075657 13 137 1.6 4.8 0.00 0.43 0.36 99 1016.7
20260507075155 12 168 1.6 4.8 0.00 0.43 0.36 99 1016.7
20260507074654 12 143 0.0 4.8 0.00 0.43 0.36 99 1016.7
20260507074157 12 123 0.0 3.2 0.00 0.43 0.36 99 1016.6
20260507073155 12 152 1.6 6.4 0.00 0.43 0.36 99 1016.5
20260507072654 12 164 1.6 6.4 0.00 0.43 0.36 99 1016.6
20260507072155 12 223 1.6 6.4 0.00 0.43 0.36 99 1016.6
20260507071147 12 209 0.0 1.6 0.00 0.43 0.36 99 1016.6
20260507070642 12 143 0.0 1.6 0.00 0.43 0.36 99 1016.4
20260507070138 12 150 0.0 3.2 0.00 0.43 0.36 99 1016.5
20260507065638 12 229 1.6 3.2 0.00 0.43 0.36 99 1016.4
20260507065141 12 128 1.6 6.4 0.00 0.43 0.36 99 1016.2
20260507064636 12 126 0.0 6.4 0.00 0.43 0.36 99 1016.2
20260507064134 12 131 1.6 3.2 0.00 0.43 0.36 99 1016.1
20260507063633 12 209 0.0 3.2 0.00 0.43 0.36 99 1016.2
20260507063133 12 165 0.0 3.2 0.00 0.43 0.36 99 1016.1
20260507062631 12 140 1.6 8.0 0.00 0.43 0.36 99 1016.1
20260507062133 12 219 1.6 8.0 0.00 0.43 0.36 99 1016.1
20260507061630 12 226 0.0 6.4 0.00 0.43 0.36 99 1016.0
20260507061130 12 151 0.0 3.2 0.00 0.43 0.36 99 1015.9
20260507060631 12 220 0.0 3.2 0.00 0.43 0.36 99 1015.9